Other Public Products
Issued by NWS Grand Forks, ND

Home | Current Version | Previous Version | Graphics & Text | Print | Product List | Glossary On
Versions: 1 2 3 4 5 6 7 8 9 10 11 12 13 14 15 16 17 18 19 20 21 22 23 24 25 26 27 28 29 30 31 32 33 34 35 36 37 38 39 40 41 42 43 44 45 46 47 48 49 50
000
FPUS83 KFGF 160010
OPUFGF
PRAIRIE TO PINES WEATHER ROUNDUP
NATIONAL WEATHER SERVICE EASTERN NORTH DAKOTA/GRAND FORKS ND
600 PM CST SUN JAN 15 2017

 **SATELLITE DATA USED TO AUGMENT SKY COVER AT AUTOMATED STATIONS**
 *****  WEATHER ACROSS EASTERN NORTH DAKOTA  *****

CITY           SKY/WX    TMP DP  RH WIND       PRES   REMARKS
GRAND FORKS    FAIR      14   6  70 S14       30.02R WCI  -1
6HR MIN TEMP:  10; 6HR MAX TEMP:  17;

GRAND FORKS AF FAIR      17   8  66 SW10      30.01R WCI   5
GRAND CITY NWS NOT AVBL
BUXTON           N/A     15  10  81 S7          N/A  WCI   5
DEVILS LAKE    FAIR      17   9  70 SW12      30.00R WCI   4
6HR MIN TEMP:  12; 6HR MAX TEMP:  19;

FARGO          FAIR      20  14  77 S14       30.08F WCI   7
6HR MIN TEMP:  17; 6HR MAX TEMP:  23;

WAHPETON ARPT  FAIR      16  12  86 SE5       30.13S WCI   9
$$

 *****  WEATHER ACROSS CENTRAL AND WESTERN NORTH DAKOTA  *****

CITY           SKY/WX    TMP DP  RH WIND       PRES   REMARKS
JAMESTOWN      FAIR      19  10  68 SW9       30.02F WCI   8
6HR MIN TEMP:  19; 6HR MAX TEMP:  24;

BISMARCK       FAIR       6  -1  73 SE5       30.06R WCI  -3
6HR MIN TEMP:   3; 6HR MAX TEMP:  13;

MINOT          FAIR      19   9  65 SW9       29.95F WCI   8
6HR MIN TEMP:  19; 6HR MAX TEMP:  25;

MINOT AFB      FAIR      19   9  64 W9        29.94S WCI   8
6HR MIN TEMP:  17; 6HR MAX TEMP:  22;

GARRISON         N/A     14   6  70 SW7       29.99R WCI   4
6HR MIN TEMP:   7; 6HR MAX TEMP:  19;

WILLISTON      FAIR      11   3  70 SW8       29.97F WCI  -1
6HR MIN TEMP:  11; 6HR MAX TEMP:  19;

DICKINSON      FAIR      19   8  62 W12       29.97F WCI   7
6HR MIN TEMP:  18; 6HR MAX TEMP:  24;

HETTINGER      FAIR      15   9  76 NW5       30.02S WCI   8
6HR MIN TEMP:  15; 6HR MAX TEMP:  27;

$$

 *****  OTHER OBSERVATIONS NORTHEAST NORTH DAKOTA  *****

CITY           SKY/WX    TMP DP  RH WIND       PRES   REMARKS
WALHALLA       NOT AVBL
LANGDON        NOT AVBL
CAVALIER         N/A     19   9  63 SW12      29.96S WCI   7
GRAFTON        FAIR      12   7  79 S9        30.02R WCI   0
CANDO          NOT AVBL
FORT TOTTEN      N/A     19   7  60 S7        29.95S WCI  10
ROLLA            N/A    N/A N/A N/A MISG        N/A
RUGBY            N/A     10   7  85 SW7       29.97F WCI   0
 ***** THE ABOVE OBSERVATIONS ARE NON NWS ARE NOT QUALITY
        CONTROLLED AND MAY MIS-REPORT RAIN FOR SNOW...
$$

 *****  OTHER OBSERVATIONS SOUTHEAST NORTH DAKOTA *****

CITY           SKY/WX    TMP DP  RH WIND       PRES   REMARKS
COOPERSTOWN    FAIR      12   9  85 SW9       30.02S WCI   0
VALLEY CITY    FAIR      14   9  79 S14       30.06R WCI  -1
OAKES          NOT AVBL
GWINNER        FAIR      18  14  86 SW16      30.10S WCI   3
SHEYENNE NWR     N/A     14   8  78 SW9       29.95S WCI   2
BUFFALO          N/A     17   7  64 S9          N/A  WCI   6
WYNDMERE       NOT AVBL
 ***** THE ABOVE OBSERVATIONS ARE NON NWS ARE NOT QUALITY
       CONTROLLED AND MAY MIS-REPORT RAIN FOR SNOW...
$$

  *****  WEATHER ACROSS NORTHERN MINNESOTA  *****

CITY           SKY/WX    TMP DP  RH WIND       PRES   REMARKS
FLAG ISLAND    FAIR      18   9  68 SW8       29.95R WCI   7
WARROAD        FAIR      18  10  73 SW13G18   29.97S WCI   4
ROSEAU         FAIR      18   9  68 SW13      29.98S WCI   4
HALLOCK        FAIR      12   9  85 S17       29.99R WCI  -5
THF RVR FALLS  FAIR      15  10  80 S16       30.03S WCI  -1
6HR MIN TEMP:  15; 6HR MAX TEMP:  17;

HALSTAD        NOT AVBL
FOSSTON        FAIR      16  10  79 S16       30.05S WCI   0
BAUDETTE       FAIR      20   8  60 SW7       29.97R WCI  11
6HR MIN TEMP:  20; 6HR MAX TEMP:  27;

WASKISH        FAIR      18  10  73 W5        30.01R WCI  11
CROOKSTON      FAIR      16  10  79 S17       30.07R WCI   0
$$
  *****  WEATHER ACROSS CENTRAL AND WEST MINNESOTA  *****

CITY           SKY/WX    TMP DP  RH WIND       PRES   REMARKS
BEMIDJI        FAIR      26  16  65 SW6       30.03F WCI  20
PARK RAPIDS    FAIR      17   9  70 S9        30.08S WCI   6
6HR MIN TEMP:  17; 6HR MAX TEMP:  27;

WADENA         FAIR      18  12  79 S5        30.11S WCI  11
DETROIT LAKES  FAIR      21  18  86 S5        30.09S WCI  15
MOORHEAD       FAIR      16  10  79 S13       30.10S WCI   2
FERGUS FALLS   FAIR      16  12  86 S9        30.17S WCI   4
ELBOW LAKE     FAIR      18  15  85 E8        30.14R FOG     WCI   8
6HR MIN TEMP:  16; 6HR MAX TEMP:  23;

MORRIS MN      FAIR      16  12  86 SE9       30.14S WCI   4
STAPLES        FAIR      19  14  79 S6        30.13R WCI  11
WHEATON        FAIR      19  18  93 S7        30.15S WCI  10
$$
  *****  WEATHER ELSEWHERE ACROSS MINNESOTA  *****

CITY           SKY/WX    TMP DP  RH WIND       PRES   REMARKS
DULUTH         FAIR      24  11  57 SW10      30.09S WCI  14
6HR MIN TEMP:  22; 6HR MAX TEMP:  28;

INTRNTL FALLS  FAIR      25  13  60 SW8       29.98S WCI  16
6HR MIN TEMP:  23; 6HR MAX TEMP:  31;

ELY            FAIR      28  10  47 SW8G16    30.01F WCI  20
CLOQUET        FAIR      25  10  54 S10       30.11S WCI  15
BRAINERD       FAIR      20  12  71 S8        30.13R WCI  10
6HR MIN TEMP:  19; 6HR MAX TEMP:  27;

HIBBING        FAIR      25  10  53 S6        30.06S WCI  18
6HR MIN TEMP:  21; 6HR MAX TEMP:  31;

ALEXANDRIA     FAIR      21  15  78 S6        30.13F WCI  13
6HR MIN TEMP:  21; 6HR MAX TEMP:  26;

SAINT CLOUD    FAIR      20  15  81 SE8       30.18R WCI  10
6HR MIN TEMP:  19; 6HR MAX TEMP:  30;

MINNEAPOLIS    MOCLDY    28  18  66 SE5       30.22S WCI  23
6HR MIN TEMP:  23; 6HR MAX TEMP:  34;

$$

  *****  WEATHER ACROSS SOUTH DAKOTA  *****

CITY           SKY/WX    TMP DP  RH WIND       PRES   REMARKS
SIOUX FALLS    MOCLDY    32  20  61 S8        30.16R WCI  25
6HR MIN TEMP:  27; 6HR MAX TEMP:  37;

BROOKINGS      FAIR      24  19  81 SE7       30.13R WCI  16
WATERTOWN      FAIR      18  15  88 S5        30.12R WCI  11
6HR MIN TEMP:  15; 6HR MAX TEMP:  23;

HURON          FAIR      19  16  88 CALM      30.13F
6HR MIN TEMP:  16; 6HR MAX TEMP:  30;

SISSETON         N/A     26  18  71 CALM      30.12R
ABERDEEN       FAIR       8   2  76 SW5       30.14S WCI   0
6HR MIN TEMP:   8; 6HR MAX TEMP:  16;

MITCHELL       FAIR      31  24  75 E6        30.13S
PIERRE         FAIR      11   5  77 CALM      30.08F
6HR MIN TEMP:   9; 6HR MAX TEMP:  17;

MOBRIDGE       FAIR       9   1  70 SE6       30.07R WCI  -1
RAPID CITY     FAIR      25  14  63 CALM      29.99S
6HR MIN TEMP:  25; 6HR MAX TEMP:  34;

$$

  *****  SOME WEATHER IN NEARBY STATES *****

CITY           SKY/WX    TMP DP  RH WIND       PRES   REMARKS
GLASGOW MT     FAIR       9   2  73 S6        29.96R WCI  -1
6HR MIN TEMP:   6; 6HR MAX TEMP:  15;

GREAT FALLS MT FAIR      28  12  51 SW17      29.99R WCI  16
6HR MIN TEMP:  28; 6HR MAX TEMP:  33;

CHEYENNE WY    CLOUDY    35  19  52 NE7       29.95S
6HR MIN TEMP:  34; 6HR MAX TEMP:  39;

SCOTTSBLUFF NE MOCLDY    35  25  66 CALM      29.99S
6HR MIN TEMP:  30; 6HR MAX TEMP:  40;

OMAHA NE       FRZ RAIN  32  27  81 SE3       30.20F FOG
6HR MIN TEMP:  31; 6HR MAX TEMP:  35; 6HR PCP:  0.07;

DES MOINES IA  CLOUDY    33  22  63 SE8       30.24S
6HR MIN TEMP:  32; 6HR MAX TEMP:  35; 6HR PCP: TRACE;

DAVENPORT IA   FAIR      30  17  58 SE6       30.30R WCI  24
6HR MIN TEMP:  30; 6HR MAX TEMP:  33;

CHICAGO IL     CLOUDY    31  18  58 S3        30.31F
6HR MIN TEMP:  29; 6HR MAX TEMP:  36;

EAU CLAIRE WI  FAIR      17   8  67 S5        30.25F WCI  10
6HR MIN TEMP:  16; 6HR MAX TEMP:  27;

LA CROSSE WI   FAIR     N/A N/A N/A CALM      30.29S
$$

  *****  SOME NATIONAL WEATHER *****

CITY           SKY/WX    TMP DP  RH WIND       PRES   REMARKS
LA GUARDIA NY  FAIR      38  21  50 NW9       30.38R
6HR MIN TEMP:  38; 6HR MAX TEMP:  41;                              C1F1C2F2C3F3C4F4C5F5C6F6C7F7C8F8C9F9CaFaCbFbCcFcCdFdCe!



USA.gov is the U.S. government's official web portal to all federal, state and local government web resources and services.